Location: Brno
(49.2000°N, 16.6330°E)
Time: 08:28:40
(UTC+02:00)

BREEZE M DEB (TANK) - Visible Passes

Search period start: 26 July 2016 00:00
Search period end: 05 August 2016 00:00
Orbit: 292 x 12027 km, 49.6° (Epoch: 23 July)

Date Brightness Start Highest point End Pass type
(mag) Time Alt. Az. Time Alt. Az. Time Alt. Az.
28 Jul 7.2 04:41:29 10° SE 04:53:48 22° E 05:23:53 10° NE visible
29 Jul 7.4 04:02:05 10° ESE 04:11:36 15° E 04:28:14 10° NE visible
03 Aug 6.9 04:15:08 10° SE 04:26:30 25° E 04:56:32 10° NE visible
04 Aug 7.1 03:34:37 10° ESE 03:44:01 16° E 04:02:10 10° NE visible
